TimePDT,TemperatureF,Dew PointF,Humidity,Sea Level PressureIn,VisibilityMPH,Wind Direction,Wind SpeedMPH,Gust SpeedMPH,PrecipitationIn,Events,Conditions,WindDirDegrees,DateUTC
12:53 AM,66.0,55.0,68,29.76,10.0,NW,10.4,-,N/A,,Clear,310,2013-06-09 07:53:00
1:53 AM,66.0,55.0,68,29.77,10.0,WNW,9.2,-,N/A,,Clear,300,2013-06-09 08:53:00
2:53 AM,64.0,54.0,70,29.77,10.0,WNW,11.5,-,N/A,,Clear,290,2013-06-09 09:53:00
3:53 AM,63.0,54.0,72,29.77,10.0,WNW,8.1,-,N/A,,Clear,300,2013-06-09 10:53:00
4:53 AM,61.0,54.0,78,29.78,10.0,WNW,11.5,-,N/A,,Clear,300,2013-06-09 11:53:00
5:53 AM,60.1,54.0,80,29.80,10.0,WNW,12.7,-,N/A,,Clear,290,2013-06-09 12:53:00
6:53 AM,59.0,54.0,83,29.82,10.0,WNW,16.1,-,N/A,,Scattered Clouds,290,2013-06-09 13:53:00
7:53 AM,62.1,55.0,78,29.83,10.0,WNW,12.7,-,N/A,,Clear,290,2013-06-09 14:53:00
8:53 AM,64.9,55.0,70,29.83,10.0,West,13.8,-,N/A,,Clear,280,2013-06-09 15:53:00
9:53 AM,66.9,55.0,66,29.83,10.0,WNW,16.1,-,N/A,,Clear,300,2013-06-09 16:53:00
10:53 AM,72.0,55.0,55,29.82,10.0,WNW,15.0,-,N/A,,Clear,290,2013-06-09 17:53:00
11:53 AM,73.9,55.0,52,29.83,10.0,WNW,16.1,21.9,N/A,,Clear,300,2013-06-09 18:53:00
12:53 PM,75.9,55.9,50,29.82,10.0,WNW,17.3,-,N/A,,Clear,300,2013-06-09 19:53:00
1:53 PM,78.1,55.0,45,29.81,10.0,WNW,21.9,26.5,N/A,,Clear,290,2013-06-09 20:53:00
2:53 PM,73.0,54.0,51,29.81,10.0,West,21.9,29.9,N/A,,Clear,280,2013-06-09 21:53:00
3:53 PM,71.1,54.0,55,29.81,10.0,WNW,20.7,32.2,N/A,,Clear,290,2013-06-09 22:53:00
4:53 PM,68.0,54.0,61,29.83,10.0,WNW,21.9,27.6,N/A,,Clear,290,2013-06-09 23:53:00
5:53 PM,66.9,54.0,63,29.82,10.0,West,21.9,-,N/A,,Clear,280,2013-06-10 00:53:00
6:53 PM,64.9,54.0,68,29.81,10.0,West,20.7,-,N/A,,Clear,280,2013-06-10 01:53:00
7:53 PM,62.1,53.1,72,29.83,10.0,West,15.0,-,N/A,,Clear,280,2013-06-10 02:53:00
8:53 PM,60.1,53.1,78,29.84,10.0,WNW,18.4,-,N/A,,Clear,290,2013-06-10 03:53:00
9:53 PM,59.0,53.1,81,29.84,10.0,West,18.4,-,N/A,,Clear,270,2013-06-10 04:53:00
10:53 PM,59.0,52.0,78,29.86,10.0,West,17.3,24.2,N/A,,Clear,270,2013-06-10 05:53:00
11:53 PM,59.0,52.0,78,29.86,10.0,WNW,15.0,-,N/A,,Partly Cloudy,290,2013-06-10 06:53:00